Weather History for Mombasa, Kenya

Change the Weather History Date:

Saturday, July 13, 2013

  Actual Average Record
Temperature  
Mean Temperature 75 °F -  
Max Temperature 82 °F 84 °F 85 °F (2012)
Min Temperature 68 °F 67 °F 35 °F (2007)
Cooling Degree Days 10    
Growing Degree Days 25 (Base 50)    
Moisture  
Dew Point 68 °F    
Average Humidity 75    
Maximum Humidity 94    
Minimum Humidity 52    
Precipitation  
Precipitation 0.00 in 0.09 in - ()
Sea Level Pressure  
Sea Level Pressure 30.03 in    
Wind  
Wind Speed 11 mph ()    
Max Wind Speed 40 mph    
Max Gust Speed -    
Visibility 10.1 miles    
Events      
Averages and records for this station are not official NWS values.
T = Trace of Precipitation, MM = Missing Value Source: Averaged Metar Reports

Daily Weather History Graph

Daily Weather History Graph

Search for Another Location

Airport:

Trip Planner

Search our weather history database for the weather conditions in past years. The results will help you decide how hot, cold, wet, or windy it might be!

Date:

Astronomy

Jul. 13, 2013 Rise Set
Actual Time 6:30 AM EAT 6:24 PM EAT
Civil Twilight 6:07 AM EAT 6:46 PM EAT
Nautical Twilight 5:41 AM EAT 7:12 PM EAT
Astronomical Twilight 5:16 AM EAT 7:38 PM EAT
Moon 10:02 AM EAT (7/13) 10:24 PM EAT (7/13)
Length of Visible Light 12h 38m
Length of Day
11h 54m
Waxing Crescent, 23% of the Moon is Illuminated
Jul 13
Waxing Crescent
Jul 16
First Quarter
Jul 22
Full
Jul 29
Last Quarter
Aug 7
New

Hourly Weather History & Observations

Time (EAT) Temp. Heat Index Dew Point Humidity Pressure Visibility Wind Dir Wind Speed Gust Speed Precip Events Conditions
12:00 AM 75 °F - 68 °F 73% 30.05 in 19 mi South 22.4 mph - -   Scattered Clouds
3:00 AM 74 °F - 69 °F 81% 30.01 in 19 mi South 8.9 mph - -   Partly Cloudy
4:00 AM 73.4 °F - 69.8 °F 88% 30.01 in 6.2 mi South 10.4 mph - N/A   Scattered Clouds
6:00 AM 71 °F - 68 °F 88% 30.03 in 19 mi Calm Calm - -   Mostly Cloudy
6:00 AM 71.6 °F - 68.0 °F 88% 30.04 in 6.2 mi Calm Calm - N/A   Mostly Cloudy
7:00 AM 71.6 °F - 69.8 °F 94% 30.04 in 6.2 mi South 4.6 mph - N/A   Mostly Cloudy
8:00 AM 73.4 °F - 69.8 °F 88% 30.06 in 6.2 mi SSW 8.1 mph - N/A   Mostly Cloudy
9:00 AM 74 °F - 68 °F 77% 30.08 in 19 mi South 22.4 mph - -   Mostly Cloudy
9:00 AM 73.4 °F - 68.0 °F 83% 30.06 in 6.2 mi South 11.5 mph - N/A   Mostly Cloudy
10:00 AM 77.0 °F - 68.0 °F 74% 30.09 in 6.2 mi South 10.4 mph - N/A   Mostly Cloudy
11:00 AM 78.8 °F - 68.0 °F 69% 30.06 in 6.2 mi South 12.7 mph - N/A   Mostly Cloudy
12:00 PM 82 °F - 67 °F 52% 30.04 in 19 mi South 40.3 mph - -   Mostly Cloudy
12:00 PM 82.4 °F 85.4 °F 68.0 °F 62% 30.04 in 6.2 mi South 20.7 mph - N/A   Mostly Cloudy
1:00 PM 80.6 °F 82.7 °F 66.2 °F 61% 30.01 in 6.2 mi South 13.8 mph - N/A   Scattered Clouds
2:00 PM 80.6 °F 82.7 °F 66.2 °F 61% 30.01 in 6.2 mi South 13.8 mph - N/A   Mostly Cloudy
3:00 PM 80 °F - 68 °F 58% 29.99 in 19 mi South 31.3 mph - -   Mostly Cloudy
3:00 PM 80.6 °F 83.2 °F 68.0 °F 65% 29.98 in 6.2 mi South 16.1 mph - N/A   Mostly Cloudy
4:00 PM 78.8 °F - 68.0 °F 69% 29.98 in 6.2 mi SW 9.2 mph - N/A   Mostly Cloudy
5:00 PM 78.8 °F - 68.0 °F 69% 29.98 in 6.2 mi South 5.8 mph - N/A   Mostly Cloudy
6:00 PM 77 °F - 69 °F 71% 29.99 in 19 mi South 5.8 mph - -   Partly Cloudy
6:00 PM 77.0 °F - 69.8 °F 78% 29.98 in 6.2 mi South 5.8 mph - N/A   Scattered Clouds
7:00 PM 75.2 °F - 69.8 °F 83% 30.01 in 6.2 mi South 5.8 mph - N/A   Partly Cloudy
8:00 PM 75.2 °F - 69.8 °F 83% 30.01 in 6.2 mi South 8.1 mph - N/A   Partly Cloudy
9:00 PM 76 °F - 68 °F 70% 30.03 in 19 mi Calm Calm - -   Scattered Clouds
9:00 PM 75.2 °F - 68.0 °F 78% 30.04 in 6.2 mi Calm Calm - N/A   Partly Cloudy
10:00 PM 75.2 °F - 68.0 °F 78% 30.04 in 6.2 mi South 9.2 mph - N/A   Partly Cloudy